Flag for U.S.A. Weather past 2 weeks in Pittsburgh, Pennsylvania, U.S.A.

Now
77 °F

Sunny.


Feels Like: 79 °F
Forecast: 64 / 78 °F
Wind: 7 mph from South

Location: Allegheny County Airport

Current Time: Aug 1, 2014 at 8:09:37 PM

Latest Report: Aug 1, 2014 at 6:53 PM


Visibility: 8 mi

Pressure: 30.09 "Hg

Humidity: 56%

Dew point: 60 °F

Location of PittsburghLocation

Historic Weather in Pittsburgh — Graph

°F

Pittsburgh temperature yesterday

Maximum temperature yesterday: 78 °F (at 3:53 PM)
Minimum temperature yesterday: 57 °F (at 3:53 AM)
Average temperature yesterday: 67 °F

Past Weeks' High & Low Weather Summary

 TemperatureHumidityPressure
High84 °F (Jul 21, 3:53 PM)94% (Jul 19, 2:02 AM)30.25 "Hg (Jul 19, 2:02 AM)
Low52 °F (Jul 29, 3:53 AM)29% (Jul 25, 3:53 PM)29.61 "Hg (Jul 28, 1:53 AM)
Average68 °F73%30.03 "Hg
* Reported Jul 17 6:53 PM — Aug 1 6:53 PM, Pittsburgh, Weather by CustomWeather, © 2014

Note: Actual official high and low records may vary slightly from our data, if they occured in-between our weather recording intervals... More about our weather records

Advertising

Pittsburgh weather history for previous 24 hours

 ConditionsComfort  
Time TempWeatherWind HumidityBarometerVisibility
6:53 PM
Aug 1
77 °FSunny.7 mph56%30.09 "Hg8 mi
5:53 PM76 °FSunny.9 mph60%30.10 "Hg9 mi
4:53 PM79 °FCloudy.7 mph50%30.09 "Hg9 mi
3:53 PM81 °FScattered clouds.No wind47%30.10 "Hg9 mi
2:53 PM82 °FSunny.6 mph44%30.12 "Hg9 mi
1:53 PM81 °FSunny.6 mph44%30.14 "Hg9 mi
12:53 PM79 °FSunny.5 mph52%30.14 "Hg9 mi
11:53 AM76 °FSunny.3 mph56%30.15 "Hg8 mi
10:53 AM74 °FSunny.3 mph62%30.16 "Hg6 mi
9:53 AM71 °FSunny.5 mph76%30.16 "Hg4 mi
8:53 AM65 °FSunny.7 mph85%30.16 "Hg4 mi
7:53 AM65 °FSunny.No wind85%30.15 "Hg5 mi
7:00 AM63 °FFog.No wind88%30.15 "Hg1 mi
6:00 AM61 °FFog.5 mph88%30.14 "Hg1 mi
5:00 AM61 °FFog.3 mph94%30.13 "Hg2 mi
3:53 AM64 °FFog.5 mph87%30.11 "Hg4 mi
2:53 AM62 °FClear.6 mph90%30.12 "Hg10 mi
1:53 AM64 °FClear.6 mph84%30.12 "Hg5 mi
12:53 AM64 °FClear.7 mph87%30.13 "Hg10 mi
11:53 PM
Jul 31
68 °FClear.3 mph76%30.12 "Hg6 mi
10:53 PM71 °FClear.5 mph63%30.12 "Hg10 mi
9:53 PM73 °FPassing clouds.No wind59%30.12 "Hg10 mi
8:53 PM72 °FSunny.No wind61%30.11 "Hg9 mi
Weather by CustomWeather, © 2014

See weather overviewHow to use our weather pages